DateTimeUTC,F1_A11,F1_S11,BsB_S11,BsG_S11,BsR_S11,BbsB_S11,BbsG_S11,BbsR_S11,BaB_A11,BaG_A11,BaR_A11,Tu_S11,T_S11,Uu_S11,U_S11,P_S11,T1_A11
2021-06-17T07:00:00Z,00000200,21000000,,,,,,,0000.14,0000.01,-000.10,17.9,25.0,01.2,00.8,0667.9,31.0
2021-06-17T07:01:00Z,00000200,21000000,,,,,,,0000.02,-000.01,-000.42,17.9,25.0,01.1,00.7,0667.9,31.1
2021-06-17T07:02:00Z,00000200,21000000,,,,,,,0000.01,0000.04,0000.36,17.9,25.0,00.9,00.6,0667.9,31.1
2021-06-17T07:03:00Z,00000200,61000000,,,,,,,0000.09,-000.05,0000.25,17.9,25.0,00.9,00.6,0667.9,31.0
2021-06-17T07:04:00Z,00000200,41000000,0001.14,0000.58,0000.54,0000.70,0000.15,0000.24,0000.05,0000.16,-000.06,18.1,24.9,01.0,00.7,0668.8,31.0
2021-06-17T07:05:00Z,00000200,01000000,0001.22,0001.16,0000.40,-000.15,0000.18,0000.06,0000.31,0000.31,0000.36,18.1,24.8,01.2,00.8,0668.9,31.0
2021-06-17T07:06:00Z,00000200,01000000,0001.31,0000.55,0000.37,0000.46,-000.16,0000.31,-000.06,0000.35,-000.11,18.1,24.8,01.0,00.6,0668.9,31.0
2021-06-17T07:07:00Z,00000200,01000000,0001.04,0000.82,0000.46,0000.36,0000.02,0000.08,0000.46,-000.30,0000.07,18.1,24.7,01.0,00.6,0668.9,31.0
2021-06-17T07:08:00Z,00000200,01000000,0001.69,0000.59,0000.12,-000.02,0000.22,-000.17,-000.09,0000.22,0000.42,18.0,24.7,00.9,00.6,0668.9,31.0
2021-06-17T07:09:00Z,00000200,01000000,0001.20,0000.65,0000.25,0000.32,0000.13,0000.23,0000.50,0000.67,-000.12,18.0,24.7,00.9,00.6,0668.9,31.0
2021-06-17T07:10:00Z,00000200,01000000,0001.07,0000.78,0000.66,0000.32,0000.05,0000.16,0000.03,-000.29,0000.25,18.0,24.7,01.0,00.6,0668.9,31.0
2021-06-17T07:11:00Z,00000200,01000000,0001.13,0000.87,0000.35,0000.16,0000.37,0000.11,0000.16,0000.06,-000.04,17.9,24.6,00.8,00.5,0668.9,31.0
2021-06-17T07:12:00Z,00000200,01000000,0000.76,0000.55,0000.73,0000.34,0000.31,0000.15,0000.02,0000.21,0000.02,17.9,24.6,00.9,00.6,0668.9,31.0
2021-06-17T07:13:00Z,00000200,01000000,0000.95,0000.64,0000.36,0000.14,0000.07,0000.11,0000.45,0000.23,0000.09,17.9,24.6,00.9,00.6,0668.9,31.0
2021-06-17T07:14:00Z,00000200,01000000,0001.28,0000.55,0000.63,-000.08,0000.32,-000.00,-000.42,-000.29,0000.27,17.9,24.6,00.8,00.5,0668.9,31.0
2021-06-17T07:15:00Z,00000200,01000000,0001.23,0000.85,0000.72,0000.20,0000.02,0000.33,0000.63,0000.86,0000.50,17.9,24.6,00.8,00.5,0668.9,31.0
2021-06-17T07:16:00Z,00000200,01000000,0000.87,0000.51,0000.55,-000.26,-000.10,0000.32,0000.06,-000.09,-000.09,18.0,24.6,00.8,00.5,0668.9,31.0
2021-06-17T07:17:00Z,00000200,01000000,0001.27,0000.77,0000.29,0000.24,0000.49,-000.14,0000.49,0000.24,0000.49,18.0,24.6,00.8,00.5,0668.9,31.0
2021-06-17T07:18:00Z,00000200,01000000,0001.14,0000.66,0000.44,0000.48,0000.15,0000.35,0000.09,0000.16,0000.00,17.9,24.6,00.8,00.5,0668.8,31.0
2021-06-17T07:19:00Z,00000200,01000000,0000.68,0000.80,0000.31,0000.14,0000.09,0000.03,0000.39,0000.10,0000.17,17.9,24.6,00.6,00.4,0668.9,31.0
2021-06-17T07:20:00Z,00000200,01000000,0001.76,0000.51,0000.29,0000.42,0000.54,0000.08,0000.26,0000.61,0000.15,17.9,24.6,00.8,00.5,0668.9,31.0
2021-06-17T07:21:00Z,00000200,01000000,0001.70,0000.89,0000.32,-000.06,0000.14,0000.30,0000.21,0000.15,0000.28,17.9,24.5,00.8,00.5,0668.9,31.0
2021-06-17T07:22:00Z,00000200,01000000,0001.15,0000.73,0000.41,0000.27,0000.27,-000.03,0000.69,0000.56,0000.33,17.8,24.5,00.7,00.5,0668.8,31.0
2021-06-17T07:23:00Z,00000200,01000000,0001.28,0000.79,0000.42,0000.18,0000.03,0000.02,0000.47,0000.54,0000.22,17.8,24.5,00.9,00.6,0668.8,31.0
2021-06-17T07:24:00Z,00000200,01000000,0001.01,0000.67,0000.51,-000.01,0000.22,0000.27,0000.44,0000.97,0000.57,17.8,24.4,01.0,00.7,0668.8,31.0
2021-06-17T07:25:00Z,00000200,01000000,0001.37,0000.72,0000.34,0000.11,0000.15,0000.29,0000.39,-000.47,-000.18,17.7,24.4,01.0,00.7,0668.8,31.0
2021-06-17T07:26:00Z,00000200,01000000,0001.74,0000.52,0000.56,0000.12,0000.12,0000.02,-000.02,0000.34,0000.24,17.7,24.4,01.1,00.7,0668.8,31.0
2021-06-17T07:27:00Z,00000200,01000000,0000.18,0000.87,0000.33,-000.10,-000.14,0000.17,0000.33,0000.15,-000.04,17.7,24.4,01.0,00.7,0668.8,31.0
2021-06-17T07:28:00Z,00000200,01000000,0000.58,0000.80,0000.52,-000.50,0000.14,0000.12,0000.03,0000.06,0000.14,17.7,24.4,01.1,00.7,0668.7,31.0
2021-06-17T07:29:00Z,00000200,01000000,0001.66,0000.62,0000.71,0000.66,0000.19,0000.05,0000.53,0000.34,0000.45,17.7,24.4,01.0,00.7,0668.8,31.0
2021-06-17T07:30:00Z,00000200,01000000,0001.19,0000.55,0000.23,0000.05,0000.27,-000.01,0000.10,-000.02,0000.07,17.7,24.4,01.0,00.7,0668.8,31.0
2021-06-17T07:31:00Z,00000200,01000000,0001.17,0000.73,0000.56,0000.22,0000.11,-000.01,0000.54,0000.41,0000.18,17.8,24.4,01.0,00.7,0668.8,31.0
2021-06-17T07:32:00Z,00000200,01000000,0000.88,0000.77,0000.45,0000.11,-000.03,0000.13,0000.13,0000.20,0000.20,17.9,24.5,01.1,00.7,0668.8,31.1
2021-06-17T07:33:00Z,00000200,01000000,0001.40,0000.61,0000.51,0000.66,0000.29,0000.27,-000.35,-000.07,-000.15,18.0,24.5,00.9,00.6,0668.8,31.1
2021-06-17T07:34:00Z,00000200,01000000,0001.18,0000.55,0000.51,0000.32,-000.18,-000.10,0000.34,0000.31,0000.39,18.0,24.5,00.8,00.5,0668.8,31.0
2021-06-17T07:35:00Z,00000200,01000000,0002.22,0000.62,0000.43,0000.36,0000.20,-000.09,0000.19,0000.03,-000.06,18.0,24.5,00.8,00.5,0668.8,31.0
2021-06-17T07:36:00Z,00000200,01000000,0001.66,0000.57,0000.33,0000.31,-000.14,-000.10,0000.07,0000.22,0000.31,17.9,24.5,00.7,00.5,0668.8,31.0
2021-06-17T07:37:00Z,00000200,01000000,0001.42,0000.77,0000.47,0000.44,0000.03,0000.07,0000.37,0000.31,0000.30,17.9,24.5,00.6,00.4,0668.8,31.0
2021-06-17T07:38:00Z,00000200,01000000,0001.30,0000.86,0000.30,-000.14,0000.14,-000.01,-000.09,-000.08,-000.17,17.9,24.4,00.7,00.4,0668.8,31.0
2021-06-17T07:39:00Z,00000200,01000000,0000.72,0000.73,0000.24,0000.02,-000.10,-000.23,0000.50,0000.46,0000.30,17.8,24.4,00.5,00.4,0668.8,31.0
2021-06-17T07:40:00Z,00000200,01000000,0001.26,0000.73,0000.42,0000.17,-000.03,-000.19,0000.61,0000.78,0000.28,17.8,24.4,00.7,00.5,0668.8,31.0
2021-06-17T07:41:00Z,00000200,01000000,0001.14,0000.54,0000.39,0000.36,0000.06,0000.19,0000.93,0000.48,0000.54,17.8,24.4,00.8,00.6,0668.8,31.0
2021-06-17T07:42:00Z,00000200,01000000,0000.77,0000.79,0000.39,0000.43,0000.03,-000.16,-000.08,-000.37,-000.28,17.7,24.4,00.9,00.6,0668.8,31.0
2021-06-17T07:43:00Z,00000200,01000000,0000.84,0000.68,0000.36,0000.50,0000.25,-000.09,-000.50,-000.18,0000.28,17.7,24.3,00.7,00.5,0668.8,31.0
2021-06-17T07:44:00Z,00000200,01000000,0001.94,0000.67,0000.27,0000.16,0000.14,-000.24,0000.77,0000.58,0000.07,17.7,24.3,00.8,00.5,0668.8,31.0
2021-06-17T07:45:00Z,00000200,01000000,0000.95,0000.66,-000.06,-000.62,-000.05,-000.21,0000.26,0000.30,0000.22,17.8,24.3,00.7,00.5,0668.9,31.0
2021-06-17T07:46:00Z,00000200,01000000,0001.33,0000.64,0000.34,0000.14,-000.06,-000.20,-000.15,0000.10,0000.44,17.8,24.4,00.8,00.5,0668.9,31.0
2021-06-17T07:47:00Z,00000200,01000000,0001.70,0000.63,0000.19,0000.37,-000.09,-000.02,0000.17,0000.32,-000.08,17.9,24.4,00.7,00.5,0668.9,31.0
2021-06-17T07:48:00Z,00000200,01000000,0001.08,0000.67,0000.51,0000.17,-000.15,0000.17,0000.74,0000.58,0000.49,17.9,24.5,00.7,00.5,0668.9,31.1
2021-06-17T07:49:00Z,00000200,01000000,0001.70,0000.49,0000.54,0000.33,0000.28,0000.06,0000.23,0000.01,-000.01,18.0,24.5,00.8,00.5,0668.9,31.1
2021-06-17T07:50:00Z,00000200,01000000,0001.57,0000.71,0000.45,0000.00,-000.09,0000.10,0000.17,0000.24,0000.21,17.9,24.5,00.7,00.5,0668.9,31.0
2021-06-17T07:51:00Z,00000200,01000000,0001.12,0000.59,0000.46,-000.07,-000.05,0000.21,0000.59,0000.94,0000.50,17.9,24.5,00.7,00.5,0668.9,31.0
2021-06-17T07:52:00Z,00000200,01000000,0001.17,0001.01,0000.40,-000.07,0000.07,-000.08,0000.06,-000.29,-000.26,17.9,24.5,00.8,00.5,0668.9,31.0
2021-06-17T07:53:00Z,00000200,01000000,0000.73,0001.00,0000.33,0000.21,0000.18,0000.04,0000.36,0000.28,0000.39,17.8,24.4,00.9,00.6,0668.9,31.0
2021-06-17T07:54:00Z,00000200,01000000,0000.61,0000.68,0000.29,0000.43,0000.02,0000.08,-000.21,-000.05,-000.21,17.8,24.4,00.7,00.5,0668.9,31.0
2021-06-17T07:55:00Z,00000200,01000000,0000.72,0000.38,0000.39,-000.18,-000.05,0000.06,0000.71,0000.81,0000.33,17.8,24.4,00.8,00.5,0668.8,31.0
2021-06-17T07:56:00Z,00000200,01000000,0001.53,0000.82,0000.25,0000.35,-000.06,0000.05,0000.65,0000.21,0000.87,17.7,24.4,00.8,00.5,0668.8,31.0
2021-06-17T07:57:00Z,00000200,41000000,,,,,,,0000.51,0000.11,-000.32,17.7,24.4,00.6,00.4,0668.9,31.0
2021-06-17T07:58:00Z,00000200,61000000,,,,,,,-000.44,0000.07,0000.03,17.4,24.5,00.8,00.5,0667.8,31.0
2021-06-17T07:59:00Z,00000200,21000000,,,,,,,-000.19,-000.50,-000.16,17.4,24.6,00.6,00.4,0667.8,31.0
